Regional Weather Roundup
Issued by NWS

Home | Current Version | Previous Version | Graphics & Text | Print | Product List | Glossary Off
Versions: 1 2 3 4 5 6 7 8 9 10 11 12 13 14 15 16 17 18 19 20 21 22 23 24 25 26 27 28 29 30 31 32 33 34 35 36 37 38 39 40 41 42 43 44 45 46 47 48 49 50

000
ASUS43 KMKX 220611
RWRWI

WISCONSIN REGIONAL WEATHER ROUNDUP
NATIONAL WEATHER SERVICE MILWAUKEE/SULLIVAN WI
100 AM CDT WED OCT 22 2014

NOTE: "FAIR" INDICATES FEW OR NO CLOUDS BELOW 12,000 FEET WITH NO
SIGNIFICANT WEATHER AND/OR OBSTRUCTIONS TO VISIBILITY.

WIZ001-002-006>008-014>016-023>028-220700-
NORTHWEST WISCONSIN

CITY           SKY/WX    TMP DP  RH WIND       PRES   REMARKS
SUPERIOR ARPT  CLEAR     29  29  99 CALM      30.21S
6HR MIN TEMP:  29; 6HR MAX TEMP:  44;

ASHLAND        PTCLDY    29  27  92 CALM      30.25F
6HR MIN TEMP:  28; 6HR MAX TEMP:  38;

HAYWARD        CLEAR     40  34  79 SE5       30.23S
6HR MIN TEMP:  39; 6HR MAX TEMP:  46;

SIREN          CLEAR     44  36  73 SE12      30.20S
6HR MIN TEMP:  37; 6HR MAX TEMP:  49;

CUMBERLAND     CLEAR     37  34  87 SE6       30.23R WCI  33
RICE LAKE      CLEAR     39  35  83 SE7       30.25S WCI  34
6HR MIN TEMP:  38; 6HR MAX TEMP:  47;

CHETEK         CLEAR     39  35  87 SE5       30.24S
6HR MIN TEMP:  39; 6HR MAX TEMP:  47;

LADYSMITH      CLEAR     37  33  88 SE3       30.27S
6HR MIN TEMP:  36; 6HR MAX TEMP:  47;

EAU CLAIRE     CLEAR     41  34  76 SE8       30.25R
6HR MIN TEMP:  39; 6HR MAX TEMP:  49;

MENOMONIE      CLEAR     38  35  87 E7        30.24S WCI  33
6HR MIN TEMP:  37; 6HR MAX TEMP:  47;

NEW RICHMOND   CLEAR     41  35  80 SE7       30.21R
6HR MIN TEMP:  41; 6HR MAX TEMP:  47;

OSCEOLA        CLEAR     43  37  78 SE8       30.22S
6HR MIN TEMP:  41; 6HR MAX TEMP:  46;

$$

WIZ003>005-009-010-017-018-220700-
NORTH CENTRAL WISCONSIN

CITY           SKY/WX    TMP DP  RH WIND       PRES   REMARKS
MANITOWISH WTR CLEAR     34  32  92 SE5       30.26R WCI  30
6HR MIN TEMP:  28; 6HR MAX TEMP:  36;

ARBOR VITAE    CLEAR     38  32  79 SE6       30.27R WCI  33
6HR MIN TEMP:  32; 6HR MAX TEMP:  39;

WOODRUFF       CLEAR     38  32  79 SE6       30.27R WCI  33
6HR MIN TEMP:  32; 6HR MAX TEMP:  39;

RHINELANDER    CLEAR     32  29  88 E5        30.28S WCI  27
6HR MIN TEMP:  31; 6HR MAX TEMP:  39;

EAGLE RIVER    CLEAR     32  27  81 CALM      30.28R
6HR MIN TEMP:  28; 6HR MAX TEMP:  36;

LAND O LAKES   CLEAR     27  26  97 CALM      30.28S
6HR MIN TEMP:  27; 6HR MAX TEMP:  34;

PHILLIPS       CLEAR     32  31  97 SE3       30.26R
6HR MIN TEMP:  29; 6HR MAX TEMP:  41;

TOMAHAWK       CLEAR     29  28  96 CALM      30.28S
6HR MIN TEMP:  28; 6HR MAX TEMP:  36;

MEDFORD        CLEAR     32  30  92 CALM      30.27R
6HR MIN TEMP:  30; 6HR MAX TEMP:  43;

MERRILL        CLEAR     33  31  94 CALM      30.28S
6HR MIN TEMP:  28; 6HR MAX TEMP:  40;

$$

WIZ029-030-035-036-043>047-220700-
CENTRAL WISCONSIN

CITY           SKY/WX    TMP DP  RH WIND       PRES   REMARKS
WAUSAU         PTCLDY    34  30  85 CALM      30.28S
6HR MIN TEMP:  33; 6HR MAX TEMP:  45;

MOSINEE        CLEAR     32  32 100 E3        30.29S
MARSHFIELD     CLEAR     35  33  92 CALM      30.27S
6HR MIN TEMP:  35; 6HR MAX TEMP:  46;

STEVENS POINT  CLEAR     27  26  96 CALM      30.30R
6HR MIN TEMP:  27; 6HR MAX TEMP:  40; 6HR PCP:  0.03;

WAUPACA        CLEAR     33  32  98 CALM      30.31R
6HR MIN TEMP:  32; 6HR MAX TEMP:  44;

WAUTOMA        CLEAR     28  27  96 CALM      30.31R
6HR MIN TEMP:  28; 6HR MAX TEMP:  40;

WISC RAPIDS    FOG       30  29  96 CALM      30.30R VSB 1
6HR MIN TEMP:  30; 6HR MAX TEMP:  40;

CAMP DOUGLAS   CLEAR     28  28 100 SE3       30.29R
6HR MIN TEMP:  27; 6HR MAX TEMP:  38; 6HR PCP: TRACE;

$$

WIZ011>013-019>022-031-037>040-048>050-220700-
NORTHEAST WISCONSIN

CITY           SKY/WX    TMP DP  RH WIND       PRES   REMARKS
ANTIGO         CLEAR     32  30  91 E5        30.29S WCI  27
6HR MIN TEMP:  32; 6HR MAX TEMP:  41;

SHAWANO        CLEAR     38  34  85 NE6       30.31S WCI  33
6HR MIN TEMP:  38; 6HR MAX TEMP:  45;

OCONTO         CLEAR     32  32 100 CALM      30.31S
6HR MIN TEMP:  29; 6HR MAX TEMP:  38;

STURGEON BAY   CLEAR     39  36  87 CALM      30.31R
6HR MIN TEMP:  37; 6HR MAX TEMP:  45;

GREEN BAY      CLEAR     31  30  96 CALM      30.30F
6HR MIN TEMP:  31; 6HR MAX TEMP:  42;

MANITOWOC      CLEAR     32  31  96 CALM      30.31R
6HR MIN TEMP:  32; 6HR MAX TEMP:  44;

APPLETON       CLEAR     36  32  87 CALM      30.30R
CLINTONVILLE   CLEAR     32  32 100 CALM      30.31R
OSHKOSH        CLEAR     36  34  92 CALM      30.29S
6HR MIN TEMP:  33; 6HR MAX TEMP:  47;

$$

WIZ032>034-041-042-053>061-220700-
SOUTHWEST WISCONSIN

CITY           SKY/WX    TMP DP  RH WIND       PRES   REMARKS
LA CROSSE      CLEAR     39  34  82 E7        30.27R WCI  34
6HR MIN TEMP:  39; 6HR MAX TEMP:  51;

SPARTA         CLEAR     28  28  98 CALM      30.29R
6HR MIN TEMP:  28; 6HR MAX TEMP:  44;

VIROQUA        CLEAR     37  37 100 S5        30.26S WCI  33
6HR MIN TEMP:  37; 6HR MAX TEMP:  45;

BOSCOBEL       CLEAR     32  30  92 E3        30.29S FOG
6HR MIN TEMP:  31; 6HR MAX TEMP:  49;

PRAIRIE DU CHI CLEAR     39  35  84 CALM      30.27S
6HR MIN TEMP:  39; 6HR MAX TEMP:  49;

PLATTEVILLE    CLEAR     37  34  90 E9        30.28S WCI  30
6HR MIN TEMP:  37; 6HR MAX TEMP:  44;

$$

WIZ056-057-062-063-064-067-068-220700-
SOUTH CENTRAL WISCONSIN

CITY           SKY/WX    TMP DP  RH WIND       PRES   REMARKS
REEDSBURG      CLEAR     31  31  99 CALM      30.29S
6HR MIN TEMP:  31; 6HR MAX TEMP:  43;

BARABOO/DELLS  CLEAR     31  30  96 CALM      30.29S
6HR MIN TEMP:  31; 6HR MAX TEMP:  40;

LONE ROCK      CLEAR     35  29  78 CALM      30.29S
6HR MIN TEMP:  33; 6HR MAX TEMP:  45;

MINERAL POINT  CLEAR     37  34  87 E3        30.27R
MADISON        CLEAR     30  29  96 CALM      30.30R FOG
6HR MIN TEMP:  30; 6HR MAX TEMP:  41;

MIDDLETON      CLEAR     32  32 100 CALM      30.30R
6HR MIN TEMP:  32; 6HR MAX TEMP:  43;

WATERTOWN      CLEAR     28  27  99 CALM      30.29R FOG
6HR MIN TEMP:  28; 6HR MAX TEMP:  39;

MONROE         CLEAR     37  36  93 E5        30.27S WCI  34
JANESVILLE     FOG       32  32 100 CALM      30.28S VSB 1/2
$$

WIZ051-052-058>065-066-070>072-220700-
SOUTHEAST WISCONSIN

CITY           SKY/WX    TMP DP  RH WIND       PRES   REMARKS
MILWAUKEE      PTCLDY    40  35  83 W5        30.28R
6HR MIN TEMP:  40; 6HR MAX TEMP:  46;

WAUKESHA       CLEAR     30  30 100 CALM      30.29S
MILWAUKEE/TIMM CLEAR     34  32  93 CALM      30.29S
RACINE         PTCLDY    41  37  86 N3        30.29R
6HR MIN TEMP:  40; 6HR MAX TEMP:  46;

BURLINGTON     CLEAR     26  26 100 CALM      30.28S
6HR MIN TEMP:  26; 6HR MAX TEMP:  36;

KENOSHA        CLEAR     38  34  85 NW6       30.27S WCI  33
6HR MIN TEMP:  34; 6HR MAX TEMP:  43;

FOND DU LAC    CLEAR     31  30  96 CALM      30.30R
6HR MIN TEMP:  30; 6HR MAX TEMP:  44;

SHEBOYGAN      CLEAR     31  29  92 NW5       30.30R WCI  26
6HR MIN TEMP:  30; 6HR MAX TEMP:  40;

WEST BEND      FOG       30  30 100 CALM      30.28S VSB 3/4
JUNEAU         CLEAR     33  33  99 CALM      30.30R FOG
6HR MIN TEMP:  31; 6HR MAX TEMP:  42;

$$

LSZ147-162-220700-
LAKE SUPERIOR

STATION/POSITION TIME  TEMP    WIND        PRES    WAVE
                       AIR SEA DIR/SP/G            HT/PER
                 (UTC) (F)     (DEG/KT/KT) (MB)    (FT/S)
W MID LAKE BUOY  0550   44 46  140/ 16/ 17 1025.1S   2/ 5
DEVILS ISLAND    0600   45     130/  8/ 10 1024.9F
PORT WING        0540   38     150/  2/  3 1023.7S
SAXON HARBOR     0500   33        CALM     1024.0S
$$

LMZ867-665-643>646-220700-
LAKE MICHIGAN




USA.gov is the U.S. government's official web portal to all federal, state and local government web resources and services.